Data No,UTC Date,UTC Time,Latitude,Longitude,Course(deg),Temp(degC),Sal(psu)
502,2024/1/18,8:21,42-36.80N,141-37.00E,206,4.37,
503,2024/1/18,8:22,42-36.51N,141-36.85E,195,4.537,
504,2024/1/18,8:23,42-36.23N,141-36.91E,165,4.402,
505,2024/1/18,8:24,42-35.98N,141-37.10E,151,4.269,
506,2024/1/18,8:25,42-35.78N,141-37.29E,143,3.907,
507,2024/1/18,8:26,42-35.53N,141-37.56E,139,4.212,
508,2024/1/18,8:27,42-35.31N,141-37.84E,138,4.359,
509,2024/1/18,8:28,42-35.07N,141-38.13E,138,4.521,
510,2024/1/18,8:29,42-34.83N,141-38.41E,139,4.678,
511,2024/1/18,8:30,42-34.59N,141-38.67E,139,4.921,
512,2024/1/18,8:31,42-34.35N,141-38.95E,139,5.041,
513,2024/1/18,8:32,42-34.10N,141-39.23E,140,5.079,
514,2024/1/18,8:33,42-33.85N,141-39.51E,140,5.08,
515,2024/1/18,8:34,42-33.59N,141-39.80E,140,5.143,
516,2024/1/18,8:35,42-33.35N,141-40.08E,139,5.193,
517,2024/1/18,8:36,42-33.09N,141-40.37E,139,5.268,
518,2024/1/18,8:37,42-32.84N,141-40.68E,139,5.288,
519,2024/1/18,8:38,42-32.59N,141-40.95E,139,5.326,
520,2024/1/18,8:39,42-32.33N,141-41.25E,139,5.435,
521,2024/1/18,8:40,42-32.08N,141-41.54E,139,5.433,
522,2024/1/18,8:41,42-31.81N,141-41.84E,140,5.373,
523,2024/1/18,8:42,42-31.55N,141-42.14E,139,5.344,
524,2024/1/18,8:43,42-31.26N,141-42.48E,139,5.33,
525,2024/1/18,8:44,42-31.00N,141-42.78E,139,5.408,
526,2024/1/18,8:45,42-30.73N,141-43.09E,139,5.41,
527,2024/1/18,8:46,42-30.49N,141-43.36E,139,5.374,
528,2024/1/18,8:47,42-30.22N,141-43.66E,140,5.345,
529,2024/1/18,8:48,42-29.93N,141-44.00E,139,5.299,
530,2024/1/18,8:49,42-29.65N,141-44.31E,140,5.242,
531,2024/1/18,8:50,42-29.37N,141-44.62E,140,5.099,
532,2024/1/18,8:51,42-29.14N,141-44.88E,140,4.955,
533,2024/1/18,8:52,42-28.88N,141-45.18E,139,4.893,
534,2024/1/18,8:53,42-28.60N,141-45.49E,140,5.01,
535,2024/1/18,8:54,42-28.32N,141-45.80E,140,5.039,
536,2024/1/18,8:55,42-28.05N,141-46.10E,140,5.097,
537,2024/1/18,8:56,42-27.77N,141-46.42E,140,5.096,
538,2024/1/18,8:57,42-27.50N,141-46.72E,140,5.105,
539,2024/1/18,8:58,42-27.25N,141-47.15E,122,5.1,
540,2024/1/18,8:59,42-27.07N,141-47.57E,119,5.139,
541,2024/1/18,9:00,42-26.91N,141-47.99E,118,5.157,
542,2024/1/18,9:01,42-26.76N,141-48.36E,118,5.124,
543,2024/1/18,9:02,42-26.59N,141-48.78E,119,5.134,
544,2024/1/18,9:03,42-26.39N,141-49.25E,120,5.141,
545,2024/1/18,9:04,42-26.19N,141-49.70E,120,5.191,
546,2024/1/18,9:05,42-26.01N,141-50.11E,121,5.268,
547,2024/1/18,9:06,42-25.82N,141-50.53E,121,5.304,
548,2024/1/18,9:07,42-25.64N,141-50.95E,121,5.319,
549,2024/1/18,9:08,42-25.48N,141-51.31E,120,5.321,
550,2024/1/18,9:09,42-25.29N,141-51.73E,120,5.29,
551,2024/1/18,9:10,42-25.11N,141-52.14E,121,5.254,
552,2024/1/18,9:11,42-24.91N,141-52.57E,121,5.173,
553,2024/1/18,9:12,42-24.74N,141-52.97E,121,5.138,
554,2024/1/18,9:13,42-24.55N,141-53.39E,121,5.158,
555,2024/1/18,9:14,42-24.36N,141-53.81E,121,5.187,
556,2024/1/18,9:15,42-24.17N,141-54.21E,121,5.167,
557,2024/1/18,9:16,42-23.98N,141-54.64E,121,5.163,
558,2024/1/18,9:17,42-23.80N,141-55.04E,121,5.181,
559,2024/1/18,9:18,42-23.61N,141-55.46E,121,5.21,
560,2024/1/18,9:19,42-23.42N,141-55.88E,121,5.226,
561,2024/1/18,9:20,42-23.23N,141-56.28E,121,5.23,
562,2024/1/18,9:21,42-23.04N,141-56.70E,121,5.222,
563,2024/1/18,9:22,42-22.85N,141-57.11E,121,5.217,
564,2024/1/18,9:23,42-22.66N,141-57.53E,121,5.225,
565,2024/1/18,9:24,42-22.47N,141-57.95E,121,5.245,
566,2024/1/18,9:25,42-22.28N,141-58.37E,121,5.33,
567,2024/1/18,9:26,42-22.09N,141-58.77E,121,5.397,
568,2024/1/18,9:27,42-21.91N,141-59.18E,121,5.413,
569,2024/1/18,9:28,42-21.71N,141-59.60E,122,5.401,
570,2024/1/18,9:29,42-21.52N,142-00.02E,121,5.302,
571,2024/1/18,9:30,42-21.33N,142-00.42E,121,5.303,
572,2024/1/18,9:31,42-21.14N,142-00.84E,121,5.317,
573,2024/1/18,9:32,42-20.92N,142-01.32E,121,5.373,
574,2024/1/18,9:33,42-20.74N,142-01.73E,121,5.416,
575,2024/1/18,9:34,42-20.55N,142-02.15E,121,5.428,
576,2024/1/18,9:35,42-20.37N,142-02.55E,120,5.444,
577,2024/1/18,9:36,42-20.18N,142-02.96E,120,5.447,
578,2024/1/18,9:37,42-20.01N,142-03.35E,121,5.461,
579,2024/1/18,9:38,42-19.83N,142-03.74E,121,5.497,
580,2024/1/18,9:39,42-19.64N,142-04.17E,121,5.52,
581,2024/1/18,9:40,42-19.45N,142-04.59E,121,5.479,
582,2024/1/18,9:41,42-19.26N,142-04.99E,121,5.428,
583,2024/1/18,9:42,42-19.08N,142-05.41E,121,5.415,
584,2024/1/18,9:43,42-18.89N,142-05.82E,121,5.559,
585,2024/1/18,9:44,42-18.70N,142-06.25E,121,5.911,
586,2024/1/18,9:45,42-18.52N,142-06.65E,120,6.232,
587,2024/1/18,9:46,42-18.33N,142-07.07E,121,6.438,
588,2024/1/18,9:47,42-18.15N,142-07.49E,120,6.362,
589,2024/1/18,9:48,42-17.96N,142-07.90E,121,6.321,
590,2024/1/18,9:49,42-17.77N,142-08.33E,121,6.355,
591,2024/1/18,9:50,42-17.58N,142-08.74E,121,6.481,
592,2024/1/18,9:51,42-17.39N,142-09.17E,121,6.415,
593,2024/1/18,9:52,42-17.21N,142-09.58E,120,6.386,
594,2024/1/18,9:53,42-17.02N,142-10.01E,120,6.318,
595,2024/1/18,9:54,42-16.83N,142-10.45E,120,6.347,
596,2024/1/18,9:55,42-16.64N,142-10.86E,120,6.38,
597,2024/1/18,9:56,42-16.45N,142-11.29E,120,6.428,
598,2024/1/18,9:57,42-16.27N,142-11.71E,120,6.433,
599,2024/1/18,9:58,42-16.08N,142-12.14E,120,6.421,
600,2024/1/18,9:59,42-15.90N,142-12.56E,120,6.364,
601,2024/1/18,10:00,42-15.72N,142-12.98E,120,6.331,
602,2024/1/18,10:01,42-15.53N,142-13.41E,120,6.271,
603,2024/1/18,10:02,42-15.34N,142-13.84E,120,6.238,
604,2024/1/18,10:03,42-15.16N,142-14.26E,120,6.185,
605,2024/1/18,10:04,42-14.97N,142-14.68E,120,6.135,
606,2024/1/18,10:05,42-14.78N,142-15.12E,120,6.142,
607,2024/1/18,10:06,42-14.60N,142-15.53E,120,6.148,
608,2024/1/18,10:07,42-14.41N,142-15.96E,120,6.122,
609,2024/1/18,10:08,42-14.20N,142-16.45E,120,6.088,
610,2024/1/18,10:09,42-14.03N,142-16.83E,120,6.067,
611,2024/1/18,10:10,42-13.85N,142-17.24E,120,6.069,
612,2024/1/18,10:11,42-13.66N,142-17.67E,120,6.073,
613,2024/1/18,10:12,42-13.47N,142-18.10E,120,6.064,
614,2024/1/18,10:13,42-13.28N,142-18.54E,119,6.112,
615,2024/1/18,10:14,42-13.10N,142-18.97E,120,6.083,
616,2024/1/18,10:15,42-12.91N,142-19.39E,120,6.168,
617,2024/1/18,10:16,42-12.73N,142-19.81E,120,6.565,
618,2024/1/18,10:17,42-12.54N,142-20.23E,120,6.938,
619,2024/1/18,10:18,42-12.36N,142-20.64E,120,7.224,
620,2024/1/18,10:19,42-12.17N,142-21.06E,120,7.321,
621,2024/1/18,10:20,42-11.99N,142-21.47E,121,7.314,
622,2024/1/18,10:21,42-11.81N,142-21.86E,120,7.354,
623,2024/1/18,10:22,42-11.63N,142-22.28E,121,7.376,
624,2024/1/18,10:23,42-11.45N,142-22.68E,121,7.378,
625,2024/1/18,10:24,42-11.26N,142-23.10E,121,7.393,
626,2024/1/18,10:25,42-11.08N,142-23.50E,121,7.341,
627,2024/1/18,10:26,42-10.91N,142-23.91E,121,7.284,
628,2024/1/18,10:27,42-10.72N,142-24.32E,121,7.288,
629,2024/1/18,10:28,42-10.53N,142-24.74E,122,7.314,
630,2024/1/18,10:29,42-10.34N,142-25.15E,121,7.355,
631,2024/1/18,10:30,42-10.15N,142-25.56E,121,7.366,
632,2024/1/18,10:31,42-09.96N,142-25.97E,121,7.327,
633,2024/1/18,10:32,42-09.78N,142-26.37E,121,7.174,
634,2024/1/18,10:33,42-09.61N,142-26.77E,121,7.037,
635,2024/1/18,10:34,42-09.42N,142-27.18E,121,7,
636,2024/1/18,10:35,42-09.25N,142-27.57E,121,6.977,
637,2024/1/18,10:36,42-09.06N,142-27.97E,120,6.88,
638,2024/1/18,10:37,42-08.89N,142-28.37E,121,6.79,
639,2024/1/18,10:38,42-08.72N,142-28.76E,121,6.689,
640,2024/1/18,10:39,42-08.54N,142-29.16E,120,6.683,
641,2024/1/18,10:40,42-08.37N,142-29.54E,120,6.944,
642,2024/1/18,10:41,42-08.19N,142-29.93E,121,6.986,
643,2024/1/18,10:42,42-08.02N,142-30.34E,120,7.126,
644,2024/1/18,10:43,42-07.86N,142-30.72E,119,7.249,
645,2024/1/18,10:44,42-07.69N,142-31.12E,119,7.688,
646,2024/1/18,10:45,42-07.52N,142-31.51E,119,8.327,
647,2024/1/18,10:46,42-07.37N,142-31.90E,118,8.336,
648,2024/1/18,10:47,42-07.21N,142-32.29E,118,8.296,
649,2024/1/18,10:48,42-07.06N,142-32.67E,118,8.24,
650,2024/1/18,10:49,42-06.90N,142-33.06E,118,8.281,
651,2024/1/18,10:50,42-06.74N,142-33.45E,118,8.237,
652,2024/1/18,10:51,42-06.59N,142-33.82E,118,8.068,
653,2024/1/18,10:52,42-06.44N,142-34.20E,118,8.017,
654,2024/1/18,10:53,42-06.29N,142-34.59E,117,7.687,
655,2024/1/18,10:54,42-06.14N,142-34.98E,117,8.044,
656,2024/1/18,10:55,42-05.99N,142-35.36E,117,8.338,
657,2024/1/18,10:56,42-05.84N,142-35.74E,117,8.376,
658,2024/1/18,10:57,42-05.68N,142-36.14E,117,8.429,
659,2024/1/18,10:58,42-05.53N,142-36.52E,117,8.422,
660,2024/1/18,10:59,42-05.38N,142-36.92E,118,8.364,
661,2024/1/18,11:00,42-05.22N,142-37.32E,117,8.2,
662,2024/1/18,11:01,42-05.07N,142-37.71E,117,8.119,
663,2024/1/18,11:02,42-04.91N,142-38.11E,118,8.148,
664,2024/1/18,11:03,42-04.75N,142-38.52E,117,8.155,
665,2024/1/18,11:04,42-04.60N,142-38.91E,117,8.113,
666,2024/1/18,11:05,42-04.45N,142-39.30E,118,7.998,
667,2024/1/18,11:06,42-04.29N,142-39.71E,118,7.426,
668,2024/1/18,11:07,42-04.13N,142-40.10E,118,6.738,
669,2024/1/18,11:08,42-03.97N,142-40.51E,118,6.531,
670,2024/1/18,11:09,42-03.81N,142-40.91E,118,6.455,
671,2024/1/18,11:10,42-03.66N,142-41.28E,118,6.399,
672,2024/1/18,11:11,42-03.50N,142-41.68E,118,6.313,
673,2024/1/18,11:12,42-03.32N,142-42.09E,120,6.298,
674,2024/1/18,11:13,42-03.15N,142-42.46E,122,6.254,
675,2024/1/18,11:14,42-02.98N,142-42.84E,122,6.176,
676,2024/1/18,11:15,42-02.79N,142-43.22E,122,6.088,
677,2024/1/18,11:16,42-02.61N,142-43.60E,122,5.984,
678,2024/1/18,11:17,42-02.43N,142-43.98E,122,5.902,
679,2024/1/18,11:18,42-02.25N,142-44.36E,122,5.74,
680,2024/1/18,11:19,42-02.07N,142-44.75E,122,5.662,
681,2024/1/18,11:20,42-01.89N,142-45.12E,123,5.62,
682,2024/1/18,11:21,42-01.70N,142-45.50E,124,5.898,
683,2024/1/18,11:22,42-01.51N,142-45.88E,124,5.934,
684,2024/1/18,11:23,42-01.32N,142-46.26E,124,5.651,
685,2024/1/18,11:24,42-01.14N,142-46.62E,123,5.519,
686,2024/1/18,11:25,42-00.95N,142-46.99E,123,5.477,
687,2024/1/18,11:26,42-00.77N,142-47.36E,123,5.359,
688,2024/1/18,11:27,42-00.58N,142-47.74E,123,5.155,
689,2024/1/18,11:28,42-00.39N,142-48.11E,124,5.023,
690,2024/1/18,11:29,42-00.21N,142-48.47E,123,5.098,
691,2024/1/18,11:30,42-00.03N,142-48.85E,123,5.199,
692,2024/1/18,11:31,41-59.84N,142-49.21E,124,5.447,
693,2024/1/18,11:32,41-59.66N,142-49.59E,123,5.747,
694,2024/1/18,11:33,41-59.48N,142-49.96E,123,5.876,
695,2024/1/18,11:34,41-59.29N,142-50.33E,123,6.064,
696,2024/1/18,11:35,41-59.11N,142-50.71E,123,6.197,
697,2024/1/18,11:36,41-58.93N,142-51.09E,123,6.24,
698,2024/1/18,11:37,41-58.74N,142-51.46E,123,6.049,
699,2024/1/18,11:38,41-58.56N,142-51.83E,123,5.945,
700,2024/1/18,11:39,41-58.38N,142-52.20E,123,5.857,
701,2024/1/18,11:40,41-58.20N,142-52.58E,122,5.766,
702,2024/1/18,11:41,41-58.02N,142-52.96E,122,5.702,
703,2024/1/18,11:42,41-57.84N,142-53.34E,122,5.621,
704,2024/1/18,11:43,41-57.66N,142-53.70E,123,5.36,
705,2024/1/18,11:44,41-57.47N,142-54.09E,122,5.285,
706,2024/1/18,11:45,41-57.29N,142-54.46E,123,5.235,
707,2024/1/18,11:46,41-57.11N,142-54.84E,123,4.735,
708,2024/1/18,11:47,41-56.93N,142-55.23E,122,4.625,
709,2024/1/18,11:48,41-56.75N,142-55.60E,122,4.725,
710,2024/1/18,11:49,41-56.57N,142-55.98E,122,4.687,
711,2024/1/18,11:50,41-56.38N,142-56.37E,122,4.525,
712,2024/1/18,11:51,41-56.21N,142-56.74E,122,4.41,
713,2024/1/18,11:52,41-56.02N,142-57.12E,122,4.419,
714,2024/1/18,11:53,41-55.85N,142-57.50E,122,4.595,
715,2024/1/18,11:54,41-55.67N,142-57.88E,122,4.718,
716,2024/1/18,11:55,41-55.48N,142-58.27E,122,4.741,
717,2024/1/18,11:56,41-55.31N,142-58.64E,122,4.746,
718,2024/1/18,11:57,41-55.13N,142-59.02E,122,4.643,
719,2024/1/18,11:58,41-54.94N,142-59.41E,122,4.549,
720,2024/1/18,11:59,41-54.77N,142-59.77E,122,4.503,
721,2024/1/18,12:00,41-54.58N,143-00.16E,123,4.466,
722,2024/1/18,12:01,41-54.41N,143-00.53E,122,4.365,
723,2024/1/18,12:02,41-54.22N,143-00.92E,122,4.212,
724,2024/1/18,12:03,41-54.04N,143-01.31E,123,4.022,
725,2024/1/18,12:04,41-53.86N,143-01.67E,123,3.975,
726,2024/1/18,12:05,41-53.67N,143-02.05E,123,4.047,
727,2024/1/18,12:06,41-53.49N,143-02.42E,123,4.038,
728,2024/1/18,12:07,41-53.30N,143-02.80E,123,4.046,
729,2024/1/18,12:08,41-53.12N,143-03.19E,123,4.101,
730,2024/1/18,12:09,41-52.94N,143-03.56E,122,4.124,
731,2024/1/18,12:10,41-52.76N,143-03.94E,122,4.19,
732,2024/1/18,12:11,41-52.58N,143-04.32E,122,4.26,
733,2024/1/18,12:12,41-52.39N,143-04.70E,123,4.27,
734,2024/1/18,12:13,41-52.21N,143-05.08E,123,4.25,
735,2024/1/18,12:14,41-52.02N,143-05.46E,123,4.245,
736,2024/1/18,12:15,41-51.84N,143-05.84E,122,4.218,
737,2024/1/18,12:16,41-51.65N,143-06.23E,123,4.129,
738,2024/1/18,12:17,41-51.47N,143-06.61E,123,4.121,
739,2024/1/18,12:18,41-51.29N,143-06.97E,122,4.103,
740,2024/1/18,12:19,41-51.10N,143-07.36E,123,4.062,
741,2024/1/18,12:20,41-50.92N,143-07.74E,123,4.078,
742,2024/1/18,12:21,41-50.74N,143-08.11E,123,4.079,
743,2024/1/18,12:22,41-50.54N,143-08.50E,123,4.119,
744,2024/1/18,12:23,41-50.37N,143-08.86E,123,4.119,
745,2024/1/18,12:24,41-50.18N,143-09.25E,123,4.135,
746,2024/1/18,12:25,41-49.99N,143-09.62E,123,4.128,
747,2024/1/18,12:26,41-49.81N,143-09.99E,124,4.124,
748,2024/1/18,12:27,41-49.60N,143-10.39E,124,4.123,
749,2024/1/18,12:28,41-49.42N,143-10.74E,123,3.633,
750,2024/1/18,12:29,41-49.23N,143-11.12E,124,4.054,
751,2024/1/18,12:30,41-49.04N,143-11.50E,124,4.08,
752,2024/1/18,12:31,41-48.85N,143-11.86E,125,4.037,
753,2024/1/18,12:32,41-48.71N,143-12.25E,106,3.965,
754,2024/1/18,12:33,41-48.69N,143-12.66E,90,3.96,
755,2024/1/18,12:34,41-48.69N,143-13.09E,89,3.991,
756,2024/1/18,12:35,41-48.70N,143-13.53E,89,4.036,
757,2024/1/18,12:36,41-48.70N,143-13.94E,89,4.056,
758,2024/1/18,12:37,41-48.70N,143-14.38E,90,4.098,
759,2024/1/18,12:38,41-48.69N,143-14.81E,91,4.129,
760,2024/1/18,12:39,41-48.68N,143-15.24E,92,4.174,
761,2024/1/18,12:40,41-48.67N,143-15.69E,91,4.126,
762,2024/1/18,12:41,41-48.66N,143-16.13E,92,4.107,
763,2024/1/18,12:42,41-48.65N,143-16.56E,92,4.07,
764,2024/1/18,12:43,41-48.63N,143-16.99E,92,4.067,
765,2024/1/18,12:44,41-48.62N,143-17.42E,92,4.081,
766,2024/1/18,12:45,41-48.60N,143-17.86E,93,4.044,
767,2024/1/18,12:46,41-48.59N,143-18.30E,91,3.998,
768,2024/1/18,12:47,41-48.58N,143-18.73E,92,3.982,
769,2024/1/18,12:48,41-48.57N,143-19.16E,92,3.987,
770,2024/1/18,12:49,41-48.55N,143-19.60E,92,3.981,
771,2024/1/18,12:50,41-48.54N,143-20.06E,92,4.033,
772,2024/1/18,12:51,41-48.53N,143-20.48E,91,4.162,
773,2024/1/18,12:52,41-48.59N,143-20.89E,69,4.153,
774,2024/1/18,12:53,41-48.78N,143-21.19E,41,4.109,
775,2024/1/18,12:54,41-49.04N,143-21.40E,28,4.093,
776,2024/1/18,12:55,41-49.33N,143-21.60E,28,4.123,
777,2024/1/18,12:56,41-49.60N,143-21.80E,28,4.17,
778,2024/1/18,12:57,41-49.89N,143-22.02E,30,4.192,
779,2024/1/18,12:58,41-50.16N,143-22.24E,31,4.171,
780,2024/1/18,12:59,41-50.44N,143-22.47E,32,4.109,
781,2024/1/18,13:00,41-50.72N,143-22.70E,32,4.058,
782,2024/1/18,13:01,41-51.00N,143-22.93E,31,4.037,
783,2024/1/18,13:02,41-51.26N,143-23.16E,32,4.074,
784,2024/1/18,13:03,41-51.53N,143-23.39E,32,4.118,
785,2024/1/18,13:04,41-51.80N,143-23.63E,33,4.144,
786,2024/1/18,13:05,41-52.08N,143-23.87E,32,4.12,
787,2024/1/18,13:06,41-52.35N,143-24.10E,32,4.095,
788,2024/1/18,13:07,41-52.62N,143-24.33E,32,4.105,
789,2024/1/18,13:08,41-52.90N,143-24.56E,32,4.119,
790,2024/1/18,13:09,41-53.17N,143-24.80E,32,4.138,
791,2024/1/18,13:10,41-53.44N,143-25.03E,32,4.068,
792,2024/1/18,13:11,41-53.70N,143-25.26E,31,4.042,
793,2024/1/18,13:12,41-53.98N,143-25.47E,30,4.042,
794,2024/1/18,13:13,41-54.25N,143-25.69E,30,4.069,
795,2024/1/18,13:14,41-54.53N,143-25.91E,30,4.077,
796,2024/1/18,13:15,41-54.80N,143-26.13E,30,4.053,
797,2024/1/18,13:16,41-55.07N,143-26.34E,30,4.064,
798,2024/1/18,13:17,41-55.36N,143-26.56E,30,4.05,
799,2024/1/18,13:18,41-55.62N,143-26.77E,30,4.069,
800,2024/1/18,13:19,41-55.89N,143-26.98E,31,4.073,
801,2024/1/18,13:20,41-56.17N,143-27.21E,30,4.078,
802,2024/1/18,13:21,41-56.43N,143-27.42E,30,4.081,
803,2024/1/18,13:22,41-56.71N,143-27.64E,30,4.098,
804,2024/1/18,13:23,41-56.99N,143-27.85E,30,4.111,
805,2024/1/18,13:24,41-57.26N,143-28.06E,29,4.117,
806,2024/1/18,13:25,41-57.54N,143-28.28E,29,4.109,
807,2024/1/18,13:26,41-57.81N,143-28.49E,30,4.099,
808,2024/1/18,13:27,41-58.08N,143-28.70E,30,4.129,
809,2024/1/18,13:28,41-58.37N,143-28.92E,29,4.116,
810,2024/1/18,13:29,41-58.64N,143-29.13E,29,4.082,
811,2024/1/18,13:30,41-58.93N,143-29.34E,29,4.057,
812,2024/1/18,13:31,41-59.21N,143-29.56E,30,4.061,
813,2024/1/18,13:32,41-59.48N,143-29.77E,29,4.048,
814,2024/1/18,13:33,41-59.76N,143-29.98E,29,4.036,
815,2024/1/18,13:34,42-00.05N,143-30.20E,29,4.062,
816,2024/1/18,13:35,42-00.33N,143-30.40E,29,4.129,
817,2024/1/18,13:36,42-00.62N,143-30.62E,28,4.124,
818,2024/1/18,13:37,42-00.90N,143-30.81E,27,4.133,
819,2024/1/18,13:38,42-01.19N,143-31.03E,28,4.152,
820,2024/1/18,13:39,42-01.48N,143-31.24E,28,4.064,
821,2024/1/18,13:40,42-01.79N,143-31.46E,28,4.041,
822,2024/1/18,13:41,42-02.06N,143-31.66E,28,4.027,
823,2024/1/18,13:42,42-02.35N,143-31.87E,28,4.028,
824,2024/1/18,13:43,42-02.63N,143-32.08E,28,4.034,
825,2024/1/18,13:44,42-02.93N,143-32.29E,28,4.035,
826,2024/1/18,13:45,42-03.21N,143-32.49E,28,4.033,
827,2024/1/18,13:46,42-03.49N,143-32.70E,29,4.024,
828,2024/1/18,13:47,42-03.78N,143-32.91E,28,4.031,
829,2024/1/18,13:48,42-04.07N,143-33.12E,28,4.059,
830,2024/1/18,13:49,42-04.35N,143-33.33E,28,4.084,
831,2024/1/18,13:50,42-04.63N,143-33.54E,28,4.079,
832,2024/1/18,13:51,42-04.91N,143-33.74E,29,4.091,
833,2024/1/18,13:52,42-05.20N,143-33.96E,29,4.096,
834,2024/1/18,13:53,42-05.49N,143-34.17E,29,4.092,
835,2024/1/18,13:54,42-05.77N,143-34.38E,29,4.098,
836,2024/1/18,13:55,42-06.06N,143-34.61E,29,4.101,
837,2024/1/18,13:56,42-06.33N,143-34.82E,30,4.123,
838,2024/1/18,13:57,42-06.61N,143-35.03E,30,4.163,
839,2024/1/18,13:58,42-06.90N,143-35.26E,30,4.244,
840,2024/1/18,13:59,42-07.17N,143-35.48E,30,4.298,
841,2024/1/18,14:00,42-07.46N,143-35.71E,31,4.324,
842,2024/1/18,14:01,42-07.73N,143-35.93E,31,4.33,
843,2024/1/18,14:02,42-08.01N,143-36.16E,31,4.332,
844,2024/1/18,14:03,42-08.28N,143-36.39E,32,4.338,
845,2024/1/18,14:04,42-08.55N,143-36.62E,32,4.322,
846,2024/1/18,14:05,42-08.83N,143-36.85E,32,4.345,
847,2024/1/18,14:06,42-09.09N,143-37.07E,32,4.342,
848,2024/1/18,14:07,42-09.36N,143-37.30E,32,4.36,
849,2024/1/18,14:08,42-09.63N,143-37.53E,32,4.107,
850,2024/1/18,14:09,42-09.90N,143-37.76E,32,3.767,
851,2024/1/18,14:10,42-10.17N,143-37.99E,32,3.704,
852,2024/1/18,14:11,42-10.43N,143-38.22E,33,3.676,
853,2024/1/18,14:12,42-10.70N,143-38.44E,32,3.653,
854,2024/1/18,14:13,42-10.97N,143-38.67E,32,3.641,
855,2024/1/18,14:14,42-11.24N,143-38.89E,32,3.647,
856,2024/1/18,14:15,42-11.50N,143-39.12E,32,3.672,
857,2024/1/18,14:16,42-11.77N,143-39.35E,32,3.655,
858,2024/1/18,14:17,42-12.05N,143-39.59E,32,3.636,
859,2024/1/18,14:18,42-12.31N,143-39.82E,32,3.699,
860,2024/1/18,14:19,42-12.57N,143-40.04E,32,3.754,
861,2024/1/18,14:20,42-12.84N,143-40.26E,31,3.806,
862,2024/1/18,14:21,42-13.10N,143-40.48E,33,3.826,
863,2024/1/18,14:22,42-13.36N,143-40.72E,34,3.836,
864,2024/1/18,14:23,42-13.64N,143-40.96E,32,3.948,
865,2024/1/18,14:24,42-13.93N,143-41.21E,32,3.998,
866,2024/1/18,14:25,42-14.17N,143-41.42E,33,4.013,
867,2024/1/18,14:26,42-14.44N,143-41.65E,33,3.994,
868,2024/1/18,14:27,42-14.72N,143-41.90E,32,3.988,
869,2024/1/18,14:28,42-14.97N,143-42.12E,33,4.007,
870,2024/1/18,14:29,42-15.24N,143-42.36E,33,3.975,
871,2024/1/18,14:30,42-15.51N,143-42.59E,33,3.962,
872,2024/1/18,14:31,42-15.77N,143-42.82E,32,3.967,
873,2024/1/18,14:32,42-16.05N,143-43.05E,32,3.991,
874,2024/1/18,14:33,42-16.31N,143-43.28E,32,3.996,
875,2024/1/18,14:34,42-16.58N,143-43.51E,31,3.973,
876,2024/1/18,14:35,42-16.85N,143-43.73E,31,3.817,
877,2024/1/18,14:36,42-17.11N,143-43.95E,32,3.793,
878,2024/1/18,14:37,42-17.38N,143-44.18E,32,3.747,
879,2024/1/18,14:38,42-17.65N,143-44.40E,32,3.747,
880,2024/1/18,14:39,42-17.92N,143-44.63E,32,3.68,
881,2024/1/18,14:40,42-18.19N,143-44.86E,32,3.701,
882,2024/1/18,14:41,42-18.46N,143-45.09E,32,3.68,
883,2024/1/18,14:42,42-18.73N,143-45.32E,32,3.675,
884,2024/1/18,14:43,42-19.00N,143-45.54E,31,3.695,
885,2024/1/18,14:44,42-19.27N,143-45.77E,32,3.699,
886,2024/1/18,14:45,42-19.55N,143-46.00E,31,3.744,
887,2024/1/18,14:46,42-19.82N,143-46.21E,30,3.766,
888,2024/1/18,14:47,42-20.11N,143-46.43E,29,3.74,
889,2024/1/18,14:48,42-20.38N,143-46.64E,29,3.724,
890,2024/1/18,14:49,42-20.67N,143-46.86E,29,3.695,
891,2024/1/18,14:50,42-20.96N,143-47.08E,29,3.652,
892,2024/1/18,14:51,42-21.24N,143-47.29E,29,3.666,
893,2024/1/18,14:52,42-21.53N,143-47.52E,29,3.668,
894,2024/1/18,14:53,42-21.81N,143-47.73E,29,3.729,
895,2024/1/18,14:54,42-22.10N,143-47.95E,29,3.87,
896,2024/1/18,14:55,42-22.39N,143-48.18E,29,3.89,
897,2024/1/18,14:56,42-22.68N,143-48.40E,29,3.831,
898,2024/1/18,14:57,42-22.96N,143-48.61E,29,3.827,
899,2024/1/18,14:58,42-23.24N,143-48.83E,30,3.857,
900,2024/1/18,14:59,42-23.53N,143-49.05E,29,3.843,
901,2024/1/18,15:00,42-23.82N,143-49.27E,28,3.835,
902,2024/1/18,15:01,42-24.12N,143-49.49E,28,3.901,
903,2024/1/18,15:02,42-24.40N,143-49.69E,28,3.975,
904,2024/1/18,15:03,42-24.70N,143-49.90E,28,3.886,
905,2024/1/18,15:04,42-24.99N,143-50.11E,28,3.795,
906,2024/1/18,15:05,42-25.29N,143-50.32E,27,3.743,
907,2024/1/18,15:06,42-25.58N,143-50.53E,28,3.698,
908,2024/1/18,15:07,42-25.87N,143-50.74E,27,3.646,
909,2024/1/18,15:08,42-26.17N,143-50.95E,27,3.613,
910,2024/1/18,15:09,42-26.46N,143-51.16E,28,3.63,
911,2024/1/18,15:10,42-26.76N,143-51.38E,28,3.755,
912,2024/1/18,15:11,42-27.05N,143-51.59E,28,3.765,
913,2024/1/18,15:12,42-27.34N,143-51.81E,28,3.833,
914,2024/1/18,15:13,42-27.64N,143-52.03E,28,3.856,
915,2024/1/18,15:14,42-27.93N,143-52.23E,28,3.789,
916,2024/1/18,15:15,42-28.23N,143-52.45E,28,3.772,
917,2024/1/18,15:16,42-28.52N,143-52.66E,28,3.743,
918,2024/1/18,15:17,42-28.80N,143-52.87E,28,3.67,
919,2024/1/18,15:18,42-29.09N,143-53.08E,28,3.651,
920,2024/1/18,15:19,42-29.38N,143-53.28E,28,3.646,
921,2024/1/18,15:20,42-29.69N,143-53.51E,27,3.637,
922,2024/1/18,15:21,42-29.96N,143-53.70E,27,3.625,
923,2024/1/18,15:22,42-30.26N,143-53.91E,28,3.619,
924,2024/1/18,15:23,42-30.56N,143-54.13E,28,3.595,
925,2024/1/18,15:24,42-30.85N,143-54.34E,28,3.56,
926,2024/1/18,15:25,42-31.14N,143-54.55E,28,3.54,
927,2024/1/18,15:26,42-31.43N,143-54.76E,28,3.537,
928,2024/1/18,15:27,42-31.73N,143-54.97E,28,3.558,
929,2024/1/18,15:28,42-32.03N,143-55.19E,28,3.551,
930,2024/1/18,15:29,42-32.32N,143-55.41E,28,3.575,
931,2024/1/18,15:30,42-32.62N,143-55.63E,28,3.549,
932,2024/1/18,15:31,42-32.92N,143-55.85E,28,3.546,
933,2024/1/18,15:32,42-33.21N,143-56.06E,28,3.529,
934,2024/1/18,15:33,42-33.51N,143-56.28E,28,3.592,
935,2024/1/18,15:34,42-33.80N,143-56.50E,29,3.587,
936,2024/1/18,15:35,42-34.10N,143-56.72E,28,3.541,
937,2024/1/18,15:36,42-34.39N,143-56.95E,29,3.56,
938,2024/1/18,15:37,42-34.68N,143-57.16E,29,3.498,
939,2024/1/18,15:38,42-34.97N,143-57.38E,29,3.487,
940,2024/1/18,15:39,42-35.25N,143-57.60E,29,3.494,
941,2024/1/18,15:40,42-35.56N,143-57.83E,29,3.484,
942,2024/1/18,15:41,42-35.84N,143-58.04E,29,3.452,
943,2024/1/18,15:42,42-36.13N,143-58.27E,29,3.462,
944,2024/1/18,15:43,42-36.43N,143-58.49E,28,3.441,
945,2024/1/18,15:44,42-36.72N,143-58.71E,28,3.45,
946,2024/1/18,15:45,42-37.03N,143-58.93E,28,3.458,
947,2024/1/18,15:46,42-37.32N,143-59.13E,27,3.448,
948,2024/1/18,15:47,42-37.61N,143-59.35E,28,3.476,
949,2024/1/18,15:48,42-37.92N,143-59.58E,28,3.472,
950,2024/1/18,15:49,42-38.21N,143-59.79E,28,3.464,
951,2024/1/18,15:50,42-38.51N,144-00.01E,28,3.431,
952,2024/1/18,15:51,42-38.80N,144-00.23E,28,3.407,
953,2024/1/18,15:52,42-39.10N,144-00.44E,28,3.391,
954,2024/1/18,15:53,42-39.40N,144-00.67E,28,3.377,
955,2024/1/18,15:54,42-39.69N,144-00.89E,29,3.406,
956,2024/1/18,15:55,42-39.99N,144-01.11E,29,3.462,
957,2024/1/18,15:56,42-40.28N,144-01.33E,28,3.536,
958,2024/1/18,15:57,42-40.58N,144-01.55E,29,3.552,
959,2024/1/18,15:58,42-40.88N,144-01.78E,29,3.523,